QPF
0.00 0.00 0.00 0.00 0.00 0.00 0.00 0.00 0.00 0.00 0.00 0.00 0.00 0.00 0.00 0.00 0.00 0.00 0.00 0.00 0.00 0.00 0.00 0.00 0.00 0.00 0.00 0.00 0.00 0.00 0.00 0.14 0.42 0.22 0.13 0.19 0.17 0.09 0.00 0.00 0.00 0.00 0.05 0.26
0.00 0.00 0.00 0.00 0.00 0.00 0.00 0.00 0.00 0.00 0.00 0.00 0.00 0.00 0.00 0.00 0.00 0.00 0.00 0.00 0.00 0.00 0.00 0.00 0.00 0.00 0.00 0.00 0.00 0.00 0.00 0.00 0.05 0.12 0.03 0.06 0.10 0.08 0.01 0.02 0.00 0.00 0.12 0.20
0.00 0.00 0.00 0.00 0.00 0.00 0.00 0.00 0.00 0.00 0.00 0.00 0.00 0.00 0.00 0.00 0.00 0.00 0.00 0.00 0.00 0.00 0.00 0.00 0.00 0.00 0.00 0.00 0.00 0.00 0.00 0.00 0.00 0.02 0.03 0.08 0.13 0.19 0.07 0.03 0.01 0.02 0.06 0.16
0.00 0.00 0.00 0.00 0.00 0.00 0.00 0.00 0.00 0.00 0.00 0.00 0.00 0.00 0.00 0.00 0.00 0.00 0.00 0.00 0.00 0.00 0.00 0.00 0.00 0.00 0.00 0.00 0.00 0.00 0.00 0.00 0.00 0.00 0.03 0.06 0.06 0.07 0.06 0.01 0.05 0.04 0.02 0.11
0.00 0.00 0.00 0.00 0.00 0.00 0.00 0.00 0.00 0.00 0.00 0.00 0.00 0.00 0.00 0.00 0.00 0.00 0.00 0.00 0.00 0.00 0.00 0.00 0.00 0.00 0.00 0.00 0.00 0.00 0.00 0.00 0.00 0.00 0.01 0.03 0.02 0.00 0.01 0.01 0.01 0.00 0.01 0.01
0.00 0.00 0.00 0.00 0.00 0.00 0.00 0.00 0.00 0.00 0.00 0.00 0.00 0.00 0.01 0.00 0.00 0.00 0.00 0.00 0.00 0.00 0.00 0.00 0.00 0.00 0.00 0.00 0.00 0.00 0.00 0.00 0.00 0.00 0.00 0.00 0.02 0.04 0.01 0.01 0.07 0.01 0.00 0.00
0.00 0.00 0.00 0.00 0.00 0.00 0.00 0.00 0.00 0.00 0.00 0.00 0.00 0.00 0.00 0.00 0.00 0.00 0.00 0.00 0.00 0.00 0.00 0.00 0.00 0.00 0.00 0.00 0.00 0.00 0.00 0.00 0.00 0.00 0.00 0.00 0.10 0.09 0.03 0.01 0.00 0.00 0.00 0.00
0.00 0.00 0.00 0.00 0.00 0.00 0.00 0.00 0.00 0.00 0.00 0.00 0.00 0.00 0.00 0.00 0.00 0.00 0.00 0.00 0.00 0.00 0.00 0.00 0.00 0.00 0.00 0.00 0.00 0.00 0.00 0.00 0.00 0.00 0.00 0.00 0.00 0.01 0.02 0.01 0.01 0.00 0.00 0.00
0.00 0.00 0.00 0.00 0.00 0.00 0.00 0.00 0.00 0.00 0.00 0.00 0.00 0.00 0.00 0.00 0.00 0.00 0.00 0.00 0.00 0.00 0.00 0.00 0.00 0.00 0.00 0.00 0.00 0.00 0.00 0.00 0.00 0.00 0.00 0.00 0.00 0.01 0.09 0.01 0.01 0.00 0.00 0.02
0.00 0.00 0.00 0.00 0.00 0.00 0.00 0.00 0.00 0.00 0.00 0.00 0.00 0.00 0.00 0.00 0.00 0.00 0.00 0.00 0.00 0.00 0.00 0.00 0.00 0.00 0.00 0.00 0.00 0.00 0.00 0.00 0.00 0.00 0.00 0.00 0.00 0.00 0.00 0.03 0.09 0.00 0.00 0.00
0.00 0.00 0.00 0.00 0.00 0.00 0.00 0.00 0.00 0.00 0.00 0.00 0.00 0.00 0.00 0.00 0.00 0.00 0.00 0.00 0.00 0.00 0.00 0.00 0.00 0.00 0.00 0.00 0.00 0.00 0.00 0.00 0.00 0.00 0.00 0.00 0.00 0.00 0.00 0.00 0.00 0.00 0.01 0.03
0.00 0.00 0.00 0.00 0.00 0.00 0.00 0.00 0.00 0.00 0.00 0.00 0.00 0.00 0.00 0.00 0.00 0.00 0.00 0.00 0.00 0.00 0.00 0.00 0.00 0.00 0.00 0.00 0.00 0.00 0.00 0.00 0.00 0.00 0.00 0.00 0.01 0.01 0.00 0.02 0.03 0.02 0.00 0.03
0.00 0.00 0.00 0.00 0.00 0.00 0.00 0.00 0.00 0.00 0.00 0.00 0.00 0.00 0.00 0.00 0.00 0.00 0.00 0.00 0.00 0.00 0.00 0.00 0.00 0.00 0.00 0.00 0.00 0.00 0.00 0.00 0.00 0.00 0.00 0.01 0.02 0.09 0.01 0.00 0.01 0.01 0.00 0.02
0.00 0.00 0.00 0.00 0.00 0.00 0.00 0.00 0.00 0.00 0.00 0.00 0.00 0.00 0.00 0.00 0.00 0.00 0.00 0.00 0.00 0.00 0.00 0.00 0.00 0.00 0.00 0.00 0.00 0.00 0.00 0.00 0.00 0.00 0.00 0.00 0.00 0.05 0.04 0.08 0.03 0.00 0.00 0.04
0.00 0.00 0.00 0.00 0.00 0.00 0.00 0.00 0.00 0.00 0.00 0.00 0.00 0.00 0.00 0.00 0.00 0.00 0.00 0.00 0.00 0.00 0.00 0.00 0.00 0.00 0.00 0.00 0.00 0.00 0.00 0.00 0.00 0.00 0.00 0.00 0.00 0.00 0.01 0.00 0.00 0.05 0.22 0.12
0.00 0.00 0.00 0.00 0.00 0.00 0.00 0.00 0.00 0.00 0.00 0.00 0.00 0.00 0.00 0.00 0.00 0.00 0.00 0.00 0.00 0.00 0.00 0.00 0.00 0.00 0.00 0.00 0.00 0.00 0.00 0.00 0.00 0.00 0.00 0.00 0.00 0.00 0.00 0.05 0.21 0.61 0.79 0.34
0.00 0.00 0.00 0.00 0.00 0.00 0.00 0.00 0.00 0.00 0.00 0.00 0.00 0.00 0.00 0.00 0.00 0.00 0.00 0.00 0.00 0.00 0.00 0.00 0.00 0.00 0.00 0.00 0.00 0.00 0.00 0.00 0.00 0.00 0.00 0.00 0.00 0.00 0.00 0.00 0.02 0.10 0.24 0.12
0.00 0.00 0.00 0.00 0.00 0.00 0.00 0.00 0.00 0.00 0.00 0.00 0.00 0.00 0.00 0.00 0.00 0.00 0.00 0.00 0.00 0.00 0.00 0.00 0.00 0.00 0.00 0.00 0.00 0.00 0.00 0.00 0.00 0.00 0.00 0.00 0.00 0.00 0.00 0.00 0.00 0.00 0.01 0.04
0.00 0.00 0.00 0.00 0.00 0.00 0.00 0.00 0.00 0.00 0.00 0.00 0.00 0.00 0.00 0.00 0.00 0.00 0.00 0.00 0.00 0.00 0.00 0.00 0.00 0.00 0.00 0.00 0.00 0.00 0.00 0.00 0.00 0.00 0.00 0.00 0.00 0.00 0.00 0.00 0.00 0.00 0.00 0.00
0.00 0.00 0.00 0.00 0.00 0.00 0.00 0.00 0.00 0.00 0.00 0.00 0.00 0.00 0.00 0.00 0.00 0.00 0.00 0.00 0.00 0.00 0.00 0.00 0.00 0.00 0.00 0.00 0.00 0.00 0.00 0.00 0.00 0.00 0.00 0.00 0.00 0.00 0.00 0.00 0.00 0.00 0.00 0.00
0.00 0.00 0.00 0.00 0.00 0.00 0.00 0.00 0.00 0.00 0.00 0.00 0.00 0.00 0.00 0.00 0.00 0.00 0.00 0.00 0.00 0.00 0.00 0.00 0.00 0.00 0.00 0.00 0.00 0.00 0.00 0.00 0.00 0.00 0.00 0.00 0.00 0.00 0.00 0.00 0.00 0.00 0.00 0.00
0.00 0.00 0.00 0.00 0.00 0.00 0.00 0.00 0.00 0.00 0.00 0.00 0.00 0.00 0.00 0.00 0.00 0.00 0.00 0.00 0.00 0.00 0.00 0.00 0.00 0.00 0.00 0.00 0.00 0.00 0.00 0.00 0.00 0.00 0.00 0.00 0.00 0.00 0.00 0.00 0.00 0.00 0.00 0.00
0.00 0.00 0.00 0.00 0.00 0.00 0.00 0.00 0.00 0.00 0.00 0.00 0.00 0.00 0.00 0.00 0.00 0.00 0.00 0.00 0.00 0.00 0.00 0.00 0.00 0.00 0.00 0.00 0.00 0.00 0.00 0.00 0.00 0.00 0.00 0.00 0.00 0.00 0.00 0.00 0.00 0.00 0.00 0.00
0.00 0.00 0.00 0.00 0.00 0.00 0.00 0.00 0.00 0.00 0.00 0.00 0.00 0.00 0.00 0.00 0.00 0.00 0.00 0.00 0.00 0.00 0.00 0.00 0.00 0.00 0.00 0.00 0.00 0.00 0.00 0.00 0.00 0.00 0.00 0.00 0.00 0.00 0.00 0.00 0.00 0.00 0.00 0.00
0.00 0.00 0.00 0.00 0.00 0.00 0.00 0.00 0.00 0.00 0.00 0.00 0.00 0.00 0.00 0.00 0.00 0.00 0.00 0.00 0.00 0.00 0.00 0.00 0.00 0.00 0.00 0.00 0.01 0.00 0.00 0.03 0.02 0.01 0.00 0.00 0.00 0.00 0.00 0.00 0.00 0.00 0.00 0.00
0.00 0.00 0.00 0.00 0.00 0.00 0.00 0.00 0.00 0.00 0.00 0.00 0.00 0.00 0.00 0.00 0.00 0.00 0.00 0.00 0.00 0.00 0.00 0.01 0.01 0.02 0.02 0.02 0.03 0.01 0.03 0.06 0.06 0.03 0.01 0.00 0.00 0.00 0.00 0.00 0.00 0.00 0.00 0.00
MSLP
1001.10 1000.22 998.84 998.57 999.66 999.93 999.91 999.58 999.28 999.38 999.62 1000.01 999.55 999.12 998.82 998.70 998.79 999.09 999.88 1000.50 1001.20 1002.13 1002.96 1003.89 1004.98 1005.63 1006.29 1007.00 1007.98 1009.16 1010.38 1011.54 1011.70 1012.50 1012.67 1013.06 1013.32 1013.89 1014.22 1014.15 1014.65 1015.14 1015.08 1015.43
1000.47 1000.14 999.28 1000.17 1000.50 1000.31 999.94 999.49 999.07 999.38 999.66 999.78 999.19 998.80 998.69 998.76 999.02 999.23 999.16 999.81 1000.30 1001.24 1002.18 1003.36 1004.48 1005.38 1006.04 1006.69 1007.62 1008.89 1010.14 1011.44 1011.68 1012.15 1012.12 1012.27 1012.80 1013.02 1013.21 1013.47 1014.27 1014.38 1014.45 1015.22
1000.12 999.58 1000.21 1000.60 1000.24 999.98 999.14 998.90 999.66 999.84 999.50 998.86 998.64 998.52 998.62 999.14 999.10 999.18 999.29 999.55 1000.00 1000.69 1001.37 1002.69 1003.68 1004.73 1005.43 1006.36 1007.32 1008.31 1009.07 1010.19 1011.05 1011.18 1011.66 1011.74 1011.60 1012.85 1012.90 1013.17 1013.51 1013.45 1014.08 1014.82
1000.12 999.71 1000.36 1000.54 1000.19 999.86 999.12 999.75 999.97 999.78 999.08 997.82 998.48 999.82 998.61 998.82 999.02 998.95 999.21 999.39 999.71 1000.27 1001.04 1001.84 1002.76 1003.93 1004.80 1005.95 1007.04 1007.92 1008.79 1009.50 1010.31 1010.49 1010.73 1011.02 1011.50 1011.87 1012.26 1012.19 1012.60 1013.12 1013.13 1013.49
999.91 1000.11 1000.36 1000.48 999.88 999.81 999.74 1000.03 1000.10 999.88 999.15 998.07 997.86 998.48 999.21 998.65 998.60 998.80 999.08 999.43 999.32 999.41 1000.13 1001.01 1002.13 1003.05 1004.14 1005.17 1006.70 1007.51 1008.41 1009.08 1009.53 1010.15 1010.56 1010.81 1010.96 1010.88 1011.22 1011.70 1012.01 1012.66 1012.77 1012.55
1000.09 1000.14 1000.22 999.99 999.75 1000.08 1000.14 999.97 999.57 999.01 998.62 997.75 997.70 998.04 999.70 997.98 998.77 999.08 999.37 999.56 999.94 999.60 999.48 1000.22 1001.35 1002.58 1003.73 1004.75 1006.35 1007.38 1008.25 1008.95 1009.43 1009.79 1010.32 1010.33 1010.49 1010.73 1010.50 1011.06 1011.50 1011.54 1011.85 1011.81
1000.02 999.98 1000.12 1000.37 999.88 999.67 999.61 998.80 998.08 997.83 997.24 998.39 997.82 998.03 998.89 998.68 999.14 999.39 999.68 999.86 1000.27 1000.06 1000.19 1000.57 1001.30 1002.26 1003.53 1004.28 1005.26 1006.20 1007.63 1008.69 1009.17 1009.55 1009.84 1010.16 1010.37 1010.51 1010.47 1010.67 1010.65 1010.68 1010.80 1010.51
998.39 998.44 999.05 999.13 999.57 999.06 998.30 997.99 997.44 996.83 997.22 998.12 997.72 997.90 998.78 999.06 999.22 999.62 999.86 1000.48 1000.90 1001.08 1001.55 1001.86 1002.27 1002.75 1003.52 1004.38 1005.13 1005.88 1006.68 1007.99 1008.63 1009.12 1009.42 1009.70 1009.86 1009.95 1010.04 1009.95 1009.72 1009.59 1009.46 1009.41
997.66 997.95 998.95 999.33 999.22 999.11 997.90 998.14 997.61 997.15 997.07 997.62 997.45 997.79 998.13 999.05 999.23 999.95 1000.23 1000.86 1001.86 1002.17 1002.75 1003.33 1003.73 1004.08 1004.23 1004.81 1005.31 1006.10 1006.78 1007.36 1008.20 1008.55 1008.89 1009.16 1009.53 1009.58 1009.15 1009.09 1009.40 1009.40 1009.39 1009.28
998.24 998.15 998.61 999.12 999.35 999.06 998.68 998.71 997.76 997.81 997.77 997.67 997.93 997.98 998.20 999.34 999.70 1000.16 1000.78 1001.75 1002.60 1003.62 1004.54 1005.03 1005.33 1005.30 1005.13 1005.24 1005.61 1006.32 1006.87 1007.62 1008.00 1008.06 1008.40 1008.71 1009.09 1009.18 1009.21 1009.28 1009.53 1009.41 1009.42 1009.72
998.93 998.55 998.49 998.85 998.80 998.03 998.65 998.51 998.29 997.86 998.25 998.02 998.19 998.94 999.65 1000.07 1000.56 1001.06 1001.41 1002.49 1003.16 1003.64 1005.02 1005.64 1005.99 1006.33 1006.28 1006.02 1006.09 1006.18 1006.64 1007.00 1007.28 1007.36 1008.12 1008.71 1008.51 1008.62 1008.83 1008.81 1009.13 1009.46 1009.46 1009.84
999.68 998.72 998.02 997.72 998.19 998.66 998.68 998.50 998.63 998.19 998.61 998.89 999.09 999.25 1000.44 1000.83 1001.20 1002.17 1002.49 1002.95 1003.94 1004.78 1005.25 1005.80 1006.23 1006.69 1006.93 1007.10 1007.14 1006.98 1007.52 1007.10 1007.40 1006.89 1006.93 1007.19 1007.64 1008.10 1008.36 1008.59 1008.82 1009.13 1009.62 1009.64
999.83 999.67 998.46 997.72 997.85 998.75 999.00 999.08 998.93 998.91 998.68 998.95 999.33 999.31 1000.76 1001.14 1001.73 1002.46 1003.09 1003.63 1004.27 1005.16 1005.56 1005.83 1006.00 1007.07 1007.28 1007.21 1007.84 1007.75 1007.69 1007.49 1007.62 1007.28 1006.87 1006.75 1006.98 1007.76 1008.16 1008.27 1008.88 1009.60 1009.65 1009.57
1001.55 1000.06 998.92 998.31 1000.01 1000.21 999.19 999.18 999.48 999.67 999.29 998.94 999.01 999.32 999.93 1000.81 1001.91 1003.09 1004.12 1004.70 1004.94 1005.55 1006.15 1006.28 1006.31 1007.51 1007.92 1008.19 1008.22 1008.25 1008.08 1007.96 1007.64 1007.29 1007.02 1007.19 1007.18 1007.68 1008.02 1008.07 1008.54 1008.81 1009.42 1009.45
1001.31 1000.05 999.60 999.03 999.07 999.76 999.81 999.46 999.51 999.69 999.99 1000.15 1000.25 1000.41 1000.79 1001.71 1003.18 1004.44 1005.32 1005.43 1005.61 1005.96 1006.78 1007.30 1007.29 1007.83 1008.17 1008.37 1008.33 1008.42 1008.38 1008.37 1008.05 1007.85 1007.67 1007.63 1007.87 1008.08 1008.17 1008.28 1008.25 1008.33 1009.31 1009.52
1001.02 1000.61 1000.54 1000.20 1000.25 999.96 999.66 1000.03 1000.03 1000.04 1000.18 1000.29 1000.72 1001.06 1001.80 1003.06 1004.43 1005.02 1005.86 1006.12 1006.28 1006.65 1007.52 1007.81 1007.99 1008.13 1008.03 1008.14 1008.42 1008.58 1008.56 1008.68 1008.63 1008.29 1008.02 1008.14 1008.15 1007.97 1008.00 1007.83 1007.93 1008.96 1009.23 1008.66
1001.20 1001.27 1000.98 1000.39 1000.64 1000.37 999.82 1000.17 1000.40 1000.39 1000.55 1000.90 1001.06 1001.87 1003.24 1004.18 1004.99 1005.55 1006.24 1006.75 1006.93 1007.29 1007.55 1007.56 1007.68 1007.68 1007.81 1007.82 1007.84 1008.07 1008.48 1008.71 1008.76 1008.65 1008.47 1008.30 1008.21 1008.10 1008.10 1007.91 1007.79 1008.45 1009.01 1008.50
1001.76 1002.07 1002.09 1001.61 1001.52 1000.62 1000.16 1001.43 1001.87 1001.99 1002.13 1002.34 1002.68 1003.26 1004.30 1005.33 1005.73 1006.09 1006.48 1006.97 1007.10 1007.26 1007.53 1007.83 1007.95 1007.84 1007.68 1007.43 1007.61 1008.05 1008.42 1008.63 1008.82 1008.60 1008.53 1008.43 1008.29 1008.20 1008.10 1008.00 1007.76 1007.65 1007.86 1008.03
1002.37 1002.57 1002.39 1002.14 1001.56 1001.14 1000.91 1001.95 1002.69 1002.89 1003.25 1003.41 1004.08 1004.47 1005.71 1006.41 1006.45 1006.16 1005.77 1006.74 1007.26 1007.48 1007.66 1007.68 1007.57 1007.44 1007.67 1007.91 1007.96 1008.00 1008.14 1008.28 1008.31 1008.29 1008.22 1008.11 1008.12 1008.06 1008.05 1007.89 1007.51 1007.32 1007.22 1007.07
1003.09 1003.24 1003.41 1002.75 1002.40 1002.21 1003.08 1004.19 1004.58 1004.44 1004.50 1005.55 1006.11 1006.11 1006.60 1006.91 1006.70 1006.28 1007.18 1007.53 1007.60 1007.59 1007.55 1007.45 1007.39 1007.37 1007.31 1007.43 1007.49 1007.42 1007.40 1007.51 1007.61 1007.72 1007.68 1007.69 1007.67 1007.68 1007.68 1007.57 1007.34 1006.84 1006.62 1006.41
1003.26 1003.69 1003.25 1002.96 1003.18 1003.29 1004.92 1005.32 1005.42 1005.49 1006.95 1007.19 1007.32 1007.50 1007.65 1007.66 1007.63 1007.57 1007.37 1007.32 1007.42 1007.40 1007.33 1007.21 1007.14 1007.01 1006.94 1006.99 1007.02 1006.92 1006.99 1007.03 1007.17 1007.15 1007.08 1007.02 1007.00 1007.08 1007.10 1007.03 1006.84 1006.60 1006.03 1005.73
1004.18 1003.92 1003.30 1003.57 1004.14 1004.90 1006.41 1006.18 1006.67 1007.71 1007.82 1007.88 1008.14 1008.19 1008.14 1008.07 1007.86 1007.68 1007.51 1007.32 1007.22 1007.10 1007.03 1006.86 1006.54 1006.28 1006.16 1006.15 1006.20 1006.19 1006.25 1006.42 1006.68 1006.77 1006.65 1006.46 1006.33 1006.29 1006.13 1006.09 1005.91 1005.84 1005.62 1005.19
1005.13 1005.37 1005.71 1005.70 1005.77 1007.09 1007.40 1007.74 1008.10 1008.39 1008.60 1008.55 1008.59 1008.56 1008.42 1008.19 1007.94 1007.73 1007.39 1007.10 1006.82 1006.68 1006.55 1006.38 1006.09 1005.73 1005.58 1005.49 1005.49 1005.47 1005.65 1005.83 1006.07 1006.23 1006.14 1005.97 1005.76 1005.46 1005.36 1005.37 1005.29 1005.08 1004.87 1004.53
1005.99 1006.85 1006.74 1007.06 1006.91 1007.52 1008.12 1008.45 1008.57 1008.76 1008.74 1008.76 1008.74 1008.63 1008.53 1008.09 1007.78 1007.39 1007.08 1006.66 1006.28 1006.12 1005.88 1005.69 1005.49 1005.37 1005.36 1005.51 1005.43 1005.33 1005.39 1005.46 1005.40 1005.34 1005.47 1005.38 1005.15 1004.84 1004.50 1004.26 1003.91 1003.70 1003.58 1003.20
1006.51 1007.37 1007.32 1007.45 1007.74 1008.23 1008.56 1008.90 1009.12 1009.23 1009.24 1009.10 1008.89 1008.54 1008.14 1007.80 1007.43 1007.15 1006.74 1006.44 1006.21 1005.96 1005.73 1005.64 1005.57 1005.42 1005.29 1005.12 1004.78 1004.62 1004.69 1004.70 1004.81 1004.75 1004.51 1004.24 1004.02 1003.82 1003.53 1003.09 1002.73 1002.40 1002.19 1002.10
1006.63 1007.62 1007.82 1007.89 1008.96 1009.44 1009.44 1009.66 1009.61 1009.42 1009.07 1008.83 1008.62 1008.23 1007.97 1007.77 1007.60 1007.56 1007.32 1007.30 1006.99 1006.48 1005.89 1005.39 1005.40 1005.11 1004.70 1004.48 1004.20 1004.14 1004.17 1004.07 1004.26 1004.01 1003.79 1003.41 1002.89 1002.74 1002.68 1002.21 1001.76 1001.48 1001.60 1001.72
Thickness
5851 5840 5848 5865 5855 5851 5848 5845 5842 5853 5863 5845 5844 5849 5863 5877 5878 5872 5867 5863 5861 5856 5859 5856 5847 5843 5836 5830 5822 5812 5801 5792 5788 5780 5778 5775 5771 5766 5761 5760 5754 5748 5750 5750
5844 5827 5864 5859 5852 5845 5846 5843 5846 5853 5858 5849 5849 5849 5864 5869 5868 5871 5874 5870 5868 5865 5861 5856 5848 5842 5836 5830 5822 5812 5800 5793 5790 5785 5786 5782 5776 5774 5772 5765 5758 5755 5757 5752
5831 5855 5858 5846 5844 5840 5855 5850 5834 5829 5850 5864 5857 5845 5854 5864 5871 5874 5877 5878 5876 5868 5864 5858 5851 5845 5842 5831 5822 5813 5808 5799 5794 5794 5788 5786 5784 5770 5771 5768 5766 5767 5762 5756
5840 5865 5845 5838 5835 5849 5839 5853 5844 5837 5839 5837 5864 5782 5846 5857 5856 5866 5869 5872 5872 5870 5869 5865 5859 5850 5846 5837 5830 5820 5809 5803 5799 5798 5792 5785 5777 5771 5775 5778 5775 5770 5768 5765
5835 5839 5835 5826 5840 5853 5836 5852 5840 5839 5836 5853 5856 5827 5829 5859 5850 5859 5867 5869 5877 5880 5875 5868 5863 5860 5854 5848 5832 5824 5813 5805 5803 5797 5792 5784 5781 5786 5785 5780 5778 5773 5772 5774
5841 5862 5850 5846 5857 5851 5853 5843 5845 5852 5846 5827 5852 5843 5794 5830 5846 5854 5863 5867 5868 5876 5885 5879 5874 5867 5857 5851 5836 5826 5815 5807 5804 5799 5794 5792 5787 5785 5787 5782 5777 5780 5779 5781
5832 5836 5850 5851 5835 5852 5847 5841 5821 5818 5827 5798 5861 5843 5829 5857 5858 5858 5856 5861 5864 5872 5874 5873 5868 5861 5854 5849 5842 5834 5820 5808 5805 5800 5796 5791 5788 5787 5785 5783 5784 5783 5783 5787
5824 5815 5841 5858 5840 5835 5854 5852 5828 5803 5806 5809 5859 5826 5831 5862 5870 5867 5865 5859 5860 5860 5861 5860 5860 5858 5852 5845 5841 5834 5825 5812 5808 5801 5796 5794 5792 5789 5789 5789 5791 5792 5792 5794
5836 5830 5854 5852 5856 5853 5853 5834 5868 5844 5857 5830 5847 5853 5867 5861 5860 5855 5854 5849 5844 5846 5846 5845 5845 5845 5845 5838 5835 5828 5821 5815 5807 5803 5798 5794 5790 5788 5792 5793 5791 5791 5793 5794
5849 5821 5848 5845 5853 5856 5847 5858 5835 5841 5799 5799 5819 5831 5830 5834 5841 5846 5841 5833 5833 5830 5826 5825 5826 5829 5834 5833 5831 5824 5818 5808 5805 5803 5800 5795 5789 5788 5790 5788 5784 5786 5788 5786
5849 5840 5832 5845 5832 5839 5837 5834 5844 5852 5838 5811 5804 5804 5842 5835 5836 5833 5837 5825 5827 5823 5818 5815 5815 5815 5817 5822 5821 5819 5814 5808 5806 5805 5797 5792 5792 5791 5790 5789 5786 5783 5784 5779
5842 5843 5827 5839 5858 5860 5849 5840 5840 5822 5812 5825 5818 5818 5840 5837 5834 5827 5824 5821 5818 5814 5812 5810 5807 5805 5803 5801 5802 5802 5798 5800 5799 5804 5804 5800 5798 5793 5789 5785 5784 5782 5775 5775
5841 5820 5812 5828 5847 5845 5827 5837 5844 5844 5844 5816 5802 5817 5835 5829 5821 5821 5815 5814 5808 5805 5803 5803 5801 5792 5791 5793 5787 5787 5788 5789 5790 5793 5797 5798 5795 5789 5784 5784 5777 5769 5769 5770
5822 5822 5823 5810 5791 5809 5812 5826 5830 5824 5810 5818 5822 5824 5834 5822 5808 5803 5799 5799 5798 5790 5789 5788 5789 5779 5776 5774 5774 5774 5775 5778 5783 5785 5787 5784 5786 5782 5781 5780 5776 5772 5764 5763
5821 5807 5825 5833 5833 5821 5816 5820 5824 5813 5813 5792 5803 5801 5812 5807 5793 5786 5783 5785 5782 5777 5772 5769 5768 5764 5764 5762 5763 5764 5764 5765 5770 5771 5772 5773 5772 5770 5771 5769 5770 5767 5759 5758
5823 5796 5806 5798 5814 5817 5809 5812 5814 5812 5811 5806 5801 5792 5806 5797 5787 5778 5771 5769 5765 5762 5755 5754 5752 5751 5751 5751 5749 5750 5751 5751 5752 5755 5759 5761 5760 5761 5759 5764 5762 5753 5749 5755
5802 5795 5789 5779 5802 5800 5788 5802 5802 5806 5809 5799 5780 5790 5785 5775 5768 5765 5759 5754 5750 5747 5744 5744 5743 5743 5742 5742 5742 5738 5739 5739 5737 5737 5742 5746 5748 5749 5748 5752 5754 5747 5742 5752
5789 5781 5780 5767 5779 5748 5803 5803 5797 5787 5789 5791 5785 5783 5772 5763 5761 5759 5754 5742 5741 5739 5733 5730 5728 5729 5731 5735 5733 5730 5729 5726 5724 5726 5727 5732 5735 5737 5737 5739 5743 5746 5746 5745
5794 5778 5765 5756 5764 5782 5796 5784 5779 5771 5766 5779 5769 5767 5755 5750 5748 5745 5751 5740 5733 5727 5724 5723 5723 5723 5720 5717 5717 5716 5715 5714 5715 5715 5716 5719 5722 5724 5726 5727 5734 5740 5741 5744
5780 5779 5761 5761 5745 5738 5759 5767 5775 5773 5740 5754 5750 5745 5738 5733 5714 5723 5726 5722 5717 5719 5717 5714 5713 5713 5711 5710 5711 5708 5707 5707 5705 5707 5708 5709 5711 5712 5713 5717 5721 5731 5736 5739
5757 5753 5751 5757 5746 5760 5754 5761 5766 5726 5718 5735 5734 5728 5720 5710 5712 5715 5719 5713 5711 5709 5708 5708 5706 5703 5706 5707 5705 5701 5700 5698 5700 5702 5702 5702 5702 5702 5704 5707 5712 5716 5728 5733
5742 5743 5752 5753 5737 5727 5748 5747 5726 5724 5729 5726 5720 5715 5709 5707 5706 5705 5704 5702 5702 5700 5699 5700 5699 5701 5704 5705 5702 5698 5694 5696 5692 5691 5693 5695 5697 5696 5698 5699 5704 5707 5713 5722
5729 5743 5729 5735 5729 5734 5739 5729 5729 5726 5715 5712 5706 5705 5701 5696 5694 5694 5693 5693 5694 5694 5693 5694 5693 5694 5695 5696 5694 5688 5689 5688 5683 5680 5680 5683 5687 5690 5691 5691 5694 5697 5703 5709
5737 5737 5725 5723 5731 5727 5725 5722 5720 5715 5709 5705 5701 5696 5691 5687 5689 5688 5687 5688 5688 5689 5689 5689 5686 5682 5679 5679 5678 5677 5676 5676 5674 5672 5670 5672 5673 5677 5684 5687 5693 5696 5699 5705
5730 5726 5721 5717 5720 5719 5715 5711 5706 5702 5698 5692 5689 5686 5685 5684 5683 5682 5682 5682 5681 5681 5680 5677 5671 5667 5665 5667 5669 5669 5666 5664 5658 5658 5661 5665 5668 5669 5672 5681 5687 5694 5700 5703
5733 5716 5710 5705 5706 5698 5696 5697 5695 5689 5687 5687 5683 5682 5682 5680 5675 5670 5667 5664 5662 5662 5666 5665 5660 5658 5658 5657 5658 5658 5656 5654 5648 5648 5650 5655 5662 5663 5664 5670 5678 5686 5688 5691